TimeMST,TemperatureF,Dew PointF,Humidity,Sea Level PressureIn,VisibilityMPH,Wind Direction,Wind SpeedMPH,Gust SpeedMPH,PrecipitationIn,Events,Conditions,WindDirDegrees,DateUTC
12:53 AM,37.0,28.9,73,30.25,10.0,WSW,8.1,-,N/A,,Overcast,250,2013-03-02 07:53:00
1:53 AM,37.0,30.0,76,30.24,10.0,WSW,9.2,-,N/A,,Overcast,250,2013-03-02 08:53:00
2:53 AM,41.0,30.0,65,30.21,10.0,West,17.3,-,N/A,,Overcast,280,2013-03-02 09:53:00
3:53 AM,39.9,28.9,65,30.22,10.0,West,13.8,-,N/A,,Overcast,280,2013-03-02 10:53:00
4:53 AM,37.9,28.0,68,30.24,10.0,West,16.1,-,N/A,,Partly Cloudy,270,2013-03-02 11:53:00
5:53 AM,37.9,28.0,68,30.25,10.0,West,13.8,-,N/A,,Clear,280,2013-03-02 12:53:00
6:53 AM,39.0,28.0,65,30.26,10.0,West,6.9,-,N/A,,Clear,260,2013-03-02 13:53:00
7:53 AM,43.0,28.9,58,30.25,10.0,West,16.1,-,N/A,,Clear,280,2013-03-02 14:53:00
8:53 AM,48.0,28.9,48,30.23,10.0,WNW,17.3,25.3,N/A,,Clear,290,2013-03-02 15:53:00
9:53 AM,51.1,28.9,43,30.22,10.0,WNW,19.6,26.5,N/A,,Clear,300,2013-03-02 16:53:00
10:53 AM,55.0,28.9,37,30.20,10.0,WNW,16.1,-,N/A,,Clear,290,2013-03-02 17:53:00
11:53 AM,55.9,28.9,36,30.18,10.0,WNW,16.1,-,N/A,,Clear,290,2013-03-02 18:53:00
12:53 PM,60.1,30.0,32,30.11,10.0,WNW,13.8,-,N/A,,Clear,300,2013-03-02 19:53:00
1:53 PM,61.0,27.0,27,30.09,10.0,NW,20.7,31.1,N/A,,Clear,310,2013-03-02 20:53:00
2:53 PM,62.1,28.0,28,30.06,10.0,NW,18.4,28.8,N/A,,Clear,310,2013-03-02 21:53:00
3:53 PM,61.0,28.0,29,30.05,10.0,NNW,15.0,-,N/A,,Clear,330,2013-03-02 22:53:00
4:53 PM,60.1,28.0,30,30.05,10.0,NNW,10.4,-,N/A,,Clear,330,2013-03-02 23:53:00
5:53 PM,52.0,28.0,40,30.07,10.0,NW,4.6,-,N/A,,Clear,320,2013-03-03 00:53:00
6:53 PM,43.0,28.9,58,30.09,10.0,WSW,6.9,-,N/A,,Clear,250,2013-03-03 01:53:00
7:53 PM,43.0,30.0,60,30.08,10.0,WSW,9.2,-,N/A,,Clear,240,2013-03-03 02:53:00
8:53 PM,43.0,30.0,60,30.05,10.0,Calm,Calm,-,N/A,,Clear,0,2013-03-03 03:53:00
9:53 PM,41.0,30.0,65,30.03,10.0,WSW,4.6,-,N/A,,Clear,240,2013-03-03 04:53:00
10:53 PM,39.9,30.9,70,29.99,10.0,Calm,Calm,-,N/A,,Partly Cloudy,0,2013-03-03 05:53:00
11:53 PM,39.9,30.0,68,29.95,10.0,West,8.1,-,N/A,,Scattered Clouds,270,2013-03-03 06:53:00